When you browse on this site, cookies collect data to enhance your experience and personalize the content and advertising you see.
Visit our Privacy Policy to learn more. By continuing to use the site, you agree to this use of cookies and data.
  • In Hungary
  • List of Countries
  • For 7 days
  • Water Temperature
  • Satellite Maps
  • Weather Map
  • News
  • Weather Widgets
  • user-avatar
    Login

    Hourly Weather Moreno Valley

    Today, 21 July, Sunday

    Time Temperature Precipitation Wind Pressure Humidity
    00:00 +19°C° 0 mm 0 mps 715 mmHg 65%
    01:00 +19°C° 0 mm 0 mps 715 mmHg 66%
    02:00 +19°C° 0 mm 0 mps 715 mmHg 65%
    03:00 +19°C° 0 mm 0 mps 715 mmHg 65%
    04:00 +19°C° 0 mm 0 mps 715 mmHg 65%
    05:00 +21°C° 0 mm 0 mps 715 mmHg 57%
    06:00 +25°C° 0 mm 1 mps 716 mmHg 49%
    07:00 +27°C° 0 mm 1 mps 716 mmHg 41%
    08:00 +29°C° 0 mm 1 mps 717 mmHg 35%
    09:00 +31°C° 0 mm 1 mps 717 mmHg 30%
    10:00 +35°C° 0 mm 2 mps 717 mmHg 24%
    11:00 +36°C° 0 mm 2 mps 717 mmHg 21%
    12:00 +38°C° 0 mm 3 mps 717 mmHg 19%
    13:00 +40°C° 0 mm 3 mps 717 mmHg 17%
    14:00 +39°C° 0 mm 3 mps 716 mmHg 18%
    15:00 +39°C° 0 mm 3 mps 716 mmHg 20%
    16:00 +38°C° 0 mm 4 mps 716 mmHg 21%
    17:00 +35°C° 0 mm 3 mps 716 mmHg 28%
    18:00 +31°C° 0 mm 2 mps 715 mmHg 34%
    19:00 +28°C° 0 mm 1 mps 715 mmHg 41%
    20:00 +27°C° 0 mm 1 mps 715 mmHg 44%
    21:00 +26°C° 0 mm 1 mps 716 mmHg 48%
    22:00 +25°C° 0 mm 1 mps 716 mmHg 51%
    23:00 +24°C° 0 mm 1 mps 716 mmHg 52%

    Tomorrow, 22 July, Monday

    Time Temperature Precipitation Wind Pressure Humidity
    00:00 +24°C° 0 mm 1 mps 716 mmHg 53%
    01:00 +21°C° 0 mm 0 mps 716 mmHg 54%
    02:00 +21°C° 0 mm 0 mps 716 mmHg 55%
    03:00 +21°C° 0 mm 0 mps 716 mmHg 56%
    04:00 +21°C° 0 mm 0 mps 716 mmHg 56%
    05:00 +22°C° 0 mm 0 mps 716 mmHg 51%
    06:00 +24°C° 0 mm 0 mps 717 mmHg 46%
    07:00 +26°C° 0 mm 0 mps 717 mmHg 40%
    08:00 +30°C° 0 mm 1 mps 718 mmHg 35%
    09:00 +32°C° 0 mm 1 mps 718 mmHg 30%
    10:00 +34°C° 0 mm 1 mps 719 mmHg 25%
    11:00 +37°C° 0 mm 2 mps 718 mmHg 22%
    12:00 +38°C° 0 mm 3 mps 718 mmHg 20%
    13:00 +40°C° 0 mm 3 mps 718 mmHg 17%
    14:00 +39°C° 0 mm 3 mps 718 mmHg 18%
    15:00 +40°C° 0 mm 4 mps 717 mmHg 19%
    16:00 +38°C° 0 mm 4 mps 717 mmHg 20%
    17:00 +36°C° 0 mm 3 mps 717 mmHg 25%
    18:00 +32°C° 0 mm 2 mps 717 mmHg 29%
    19:00 +29°C° 0 mm 1 mps 716 mmHg 34%
    20:00 +28°C° 0 mm 1 mps 717 mmHg 36%
    21:00 +28°C° 0 mm 1 mps 717 mmHg 38%
    22:00 +25°C° 0 mm 0 mps 717 mmHg 40%
    23:00 +24°C° 0 mm 0 mps 717 mmHg 41%

    Day after tomorrow, 23 July, Tuesday

    Time Temperature Precipitation Wind Pressure Humidity
    00:00 +24°C° 0 mm 0 mps 717 mmHg 42%
    01:00 +23°C° 0 mm 0 mps 717 mmHg 43%
    02:00 +25°C° 0 mm 1 mps 717 mmHg 42%
    03:00 +25°C° 0 mm 1 mps 717 mmHg 42%
    04:00 +25°C° 0 mm 1 mps 717 mmHg 42%
    05:00 +27°C° 0 mm 1 mps 718 mmHg 38%
    06:00 +27°C° 0 mm 0 mps 718 mmHg 35%
    07:00 +29°C° 0 mm 0 mps 719 mmHg 32%
    08:00 +32°C° 0 mm 1 mps 719 mmHg 30%
    09:00 +34°C° 0 mm 1 mps 719 mmHg 28%
    10:00 +36°C° 0 mm 2 mps 719 mmHg 25%
    11:00 +37°C° 0 mm 3 mps 719 mmHg 24%
    12:00 +38°C° 0 mm 3 mps 719 mmHg 23%
    13:00 +39°C° 0 mm 3 mps 718 mmHg 22%
    14:00 +39°C° 0.1 mm 3 mps 718 mmHg 22%
    15:00 +38°C° 0.1 mm 3 mps 718 mmHg 23%
    16:00 +38°C° 0.1 mm 3 mps 717 mmHg 23%
    17:00 +36°C° 0 mm 2 mps 717 mmHg 26%
    18:00 +34°C° 0 mm 2 mps 717 mmHg 29%
    19:00 +31°C° 0 mm 2 mps 717 mmHg 32%
    20:00 +30°C° 0 mm 1 mps 717 mmHg 34%
    21:00 +29°C° 0 mm 1 mps 717 mmHg 36%
    22:00 +28°C° 0 mm 1 mps 717 mmHg 38%
    23:00 +28°C° 0 mm 1 mps 717 mmHg 39%

    24 July, Wednesday

    Time Temperature Precipitation Wind Pressure Humidity
    00:00 +28°C° 0 mm 1 mps 717 mmHg 39%
    01:00 +28°C° 0 mm 1 mps 717 mmHg 40%
    02:00 +26°C° 0 mm 0 mps 717 mmHg 40%
    03:00 +26°C° 0 mm 0 mps 717 mmHg 41%
    04:00 +25°C° 0 mm 0 mps 717 mmHg 41%
    05:00 +27°C° 0 mm 0 mps 718 mmHg 37%
    06:00 +29°C° 0 mm 0 mps 718 mmHg 34%
    07:00 +31°C° 0 mm 0 mps 719 mmHg 30%
    08:00 +34°C° 0 mm 1 mps 719 mmHg 27%
    09:00 +36°C° 0 mm 1 mps 719 mmHg 25%
    10:00 +39°C° 0 mm 2 mps 719 mmHg 23%
    11:00 +40°C° 0 mm 3 mps 718 mmHg 22%
    12:00 +42°C° 0 mm 4 mps 718 mmHg 21%
    13:00 +42°C° 0 mm 5 mps 718 mmHg 20%
    14:00 +42°C° 0 mm 5 mps 717 mmHg 20%
    15:00 +41°C° 0 mm 5 mps 717 mmHg 21%
    16:00 +41°C° 0 mm 6 mps 717 mmHg 21%
    17:00 +37°C° 0 mm 4 mps 716 mmHg 25%
    18:00 +35°C° 0 mm 3 mps 716 mmHg 29%
    19:00 +31°C° 0 mm 2 mps 716 mmHg 32%
    20:00 +30°C° 0 mm 1 mps 716 mmHg 35%
    21:00 +29°C° 0 mm 1 mps 716 mmHg 38%
    22:00 +26°C° 0 mm 0 mps 716 mmHg 41%
    23:00 +25°C° 0 mm 0 mps 716 mmHg 42%

    25 July, Thursday

    Time Temperature Precipitation Wind Pressure Humidity
    00:00 +25°C° 0 mm 0 mps 716 mmHg 43%
    01:00 +25°C° 0 mm 0 mps 716 mmHg 44%
    02:00 +24°C° 0 mm 0 mps 716 mmHg 45%
    03:00 +24°C° 0 mm 0 mps 716 mmHg 46%
    04:00 +23°C° 0 mm 0 mps 716 mmHg 47%
    05:00 +25°C° 0 mm 0 mps 716 mmHg 43%
    06:00 +27°C° 0 mm 0 mps 716 mmHg 38%
    07:00 +31°C° 0 mm 1 mps 717 mmHg 33%
    08:00 +32°C° 0 mm 1 mps 717 mmHg 30%
    09:00 +34°C° 0 mm 1 mps 717 mmHg 27%
    10:00 +37°C° 0 mm 2 mps 717 mmHg 23%
    11:00 +38°C° 0 mm 3 mps 717 mmHg 22%
    12:00 +40°C° 0 mm 4 mps 717 mmHg 21%
    13:00 +41°C° 0 mm 5 mps 717 mmHg 20%
    14:00 +40°C° 0 mm 4 mps 716 mmHg 21%
    15:00 +40°C° 0 mm 4 mps 716 mmHg 22%
    16:00 +38°C° 0 mm 4 mps 715 mmHg 23%
    17:00 +35°C° 0 mm 3 mps 715 mmHg 27%
    18:00 +32°C° 0 mm 2 mps 715 mmHg 31%
    19:00 +30°C° 0 mm 1 mps 715 mmHg 35%
    20:00 +29°C° 0 mm 1 mps 715 mmHg 38%
    21:00 +27°C° 0 mm 1 mps 715 mmHg 41%
    22:00 +26°C° 0 mm 1 mps 716 mmHg 44%
    23:00 +26°C° 0 mm 1 mps 716 mmHg 45%

    26 July, Friday

    Time Temperature Precipitation Wind Pressure Humidity
    00:00 +25°C° 0 mm 1 mps 716 mmHg 46%
    01:00 +23°C° 0 mm 0 mps 716 mmHg 47%
    02:00 +23°C° 0 mm 0 mps 715 mmHg 48%
    03:00 +22°C° 0 mm 0 mps 715 mmHg 49%
    04:00 +22°C° 0 mm 0 mps 715 mmHg 50%
    05:00 +24°C° 0 mm 0 mps 716 mmHg 45%
    06:00 +25°C° 0 mm 0 mps 716 mmHg 41%
    07:00 +27°C° 0 mm 0 mps 717 mmHg 36%
    08:00 +31°C° 0 mm 1 mps 717 mmHg 33%
    09:00 +34°C° 0 mm 2 mps 717 mmHg 29%
    10:00 +36°C° 0 mm 2 mps 718 mmHg 26%
    11:00 +37°C° 0 mm 3 mps 717 mmHg 24%
    12:00 +38°C° 0 mm 3 mps 717 mmHg 23%
    13:00 +40°C° 0 mm 4 mps 717 mmHg 21%
    14:00 +38°C° 0 mm 4 mps 717 mmHg 21%
    15:00 +38°C° 0 mm 4 mps 716 mmHg 22%
    16:00 +37°C° 0 mm 4 mps 716 mmHg 22%
    17:00 +35°C° 0 mm 3 mps 716 mmHg 26%
    18:00 +31°C° 0 mm 3 mps 716 mmHg 30%
    19:00 +29°C° 0 mm 2 mps 715 mmHg 34%
    20:00 +28°C° 0 mm 1 mps 716 mmHg 37%
    21:00 +27°C° 0 mm 1 mps 716 mmHg 41%
    22:00 +26°C° 0 mm 1 mps 716 mmHg 44%
    23:00 +25°C° 0 mm 1 mps 716 mmHg 45%
    Show more